Showing default

TJS-14, 62804

Orbit data source: Space-Track

TJS-14, 62804 is a payload satellite owned by PLA SSF (CN) in GEO that was launched on Thu, 23 Jan 2025 UTC via a CHANG ZHENG 3B launch vehicle from the Xichang Space Center, China (XSC). Payload-class satellites include a variety of spacecraft equipped with specific instruments for various scientific and technological missions. These include communications satellites like Starlink; space stations such as the ISS; scientific satellites like the Hubble; Earth observation satellites from companies like Planet Labs, Umbra, and HawkEye 360; GPS; miniature CubeSats for education and research; and military/defense satellites.

Not visible in the next 10 days
Identifier
62804, 2025-017A
Orbit
GEO
Country
Flag of CNCN / PRC
Related business
Manufacturer
SISE
Mission
Operational Defense Sigint
Bus & Motor
FY-4?, LAE
Mass
~5,000 kg wet, ~2,500 kg dry
Launch date (UTC)
2025-01-23 (8 months ago)
Launch vehicle
CHANG ZHENG 3B
Launch site
Xichang Space Center, China (XSC)
Object type
Payload
Rocket body
Debris
Shape & HBR
Box + 2 Pan, 15.0 m
Radar Cross Section
34.063 m², Large (>1 m²)

Expand to show TLE details & history
Last TLE update: 11 hours ago

TLE from 11 hours ago
0 TJS-14
1 62804U 25017A   25258.87369726  .00000097  00000-0  00000-0 0  9991
2 62804   1.4472 286.0720 0003425 325.9085  76.0164  1.00274490  2521
Epoch: 2025-09-15T20:58Z
TLE epoch observation values (Epoch: 2025-09-15T20:58:07.443Z)
Latitude
0.97006°
Longitude
18.42468°
Altitude
35,781.748 km
Speed
3.075 km/s
True Right ascension
21h 52m 06s
True Declination
0° 58' 09"
Sunlit
Object was in daylight at epoch
Visualization orbit readout
Latitude
Unknown
Longitude
Unknown
Altitude
Unknown
Speed
Unknown
Apparent Right ascension
Unknown
Apparent Declination
Unknown
Sunlit
N/A
Visualization observer readout
Local Sidereal Time
00:28:29
Azimuth
Unknown
Elevation
Unknown
Doppler factor
Unknown
Orbital elements
Apogee altitude
35,801.348 km
Perigee altitude
35,772.465 km
Semi-major axis
42,165.043 km
Eccentricity
0.00034
Inclination
1.4472°
RAAN
286.072°
Arg. of periapsis
325.9085°
True anomaly
76.05449°
Mean anomaly
76.0164°
Eccentric anomaly
76.03544°
Mean motion
0.25068 °/min
Orbital period
1,436.11 mins
BSTAR
0
Loading maneuver chart data...
Computing Atmospheric mass density...
Loading historical data...
Loading historical data...
Loading historical data...
Loading historical data...
Loading historical data...
Loading historical data...
Loading historical data...
Other satellites on launch #17 in the year 2025 (2025-01-23 UTC)

Documentation

Showing up to 5 results
|